4XCBD SCPQ-SPQU

Flight info

Callsign 4XCBD
Flight time N/A
Altitude 33000
Route SCPQ DCT SCPQ DCT VLD DCT PANEX DCT ARUNI DCT DALAX DCT 341632S0712451W DCT DGO DCT MILIK DCT TENUT UQ802 PUNSO UV200 DOVRI UQ802 SIRAM UV200 ARI UL300 ISLOD UP673 ILO UT224 TCA UV12 GAVAR DCT SPQU
Aircraft A320/H-V/N

Departure

Time 2026-05-06 15:51
Airport Mocopulli Airport (SCPQ)

Arrival

Time N/A
Airport Rodríguez Ballón International Airport (SPQU)
Time Latitude Longitude Altitude Speed Heading
2026-05-06 15:40 -42.34838 -73.72087 535 ft 0 kts 226°
2026-05-06 15:43 -42.34828 -73.72073 535 ft 0 kts 226°
2026-05-06 15:44 -42.34833 -73.72077 535 ft 2 kts 210°
2026-05-06 15:44 -42.34847 -73.72073 535 ft 2 kts 153°
2026-05-06 15:44 -42.34855 -73.72066 535 ft 3 kts 149°
2026-05-06 15:45 -42.34893 -73.72026 536 ft 14 kts 128°
2026-05-06 15:45 -42.34913 -73.71888 536 ft 15 kts 93°
2026-05-06 15:45 -42.34915 -73.71859 536 ft 1 kts 97°
2026-05-06 15:45 -42.34916 -73.71847 536 ft 2 kts 97°
2026-05-06 15:46 -42.34918 -73.71823 536 ft 3 kts 97°
2026-05-06 15:46 -42.34922 -73.71785 536 ft 7 kts 96°
2026-05-06 15:46 -42.34924 -73.71743 536 ft 1 kts 92°
2026-05-06 15:46 -42.34924 -73.71730 536 ft 2 kts 90°
2026-05-06 15:47 -42.34919 -73.71699 536 ft 0 kts 66°
2026-05-06 15:48 -42.34908 -73.71681 536 ft 0 kts 43°
2026-05-06 15:48 -42.34900 -73.71674 536 ft 3 kts 31°
2026-05-06 15:48 -42.34896 -73.71672 536 ft 0 kts 25°
2026-05-06 15:50 -42.34886 -73.71669 536 ft 0 kts 11°
2026-05-06 15:50 -42.34869 -73.71665 535 ft 0 kts
2026-05-06 15:50 -42.34867 -73.71666 535 ft 5 kts
2026-05-06 15:51 -42.34652 -73.71651 531 ft 59 kts
2026-05-06 15:51 -42.33917 -73.71568 517 ft 151 kts
2026-05-06 15:51 -42.32571 -73.71457 656 ft 227 kts
2026-05-06 15:51 -42.30937 -73.71263 1955 ft 244 kts
2026-05-06 15:52 -42.29217 -73.71027 3622 ft 249 kts
2026-05-06 15:52 -42.27438 -73.70715 5013 ft 273 kts 15°
2026-05-06 15:52 -42.25585 -73.69337 5060 ft 342 kts 40°
2026-05-06 15:52 -42.23557 -73.67181 5029 ft 393 kts 28°
2026-05-06 15:53 -42.21112 -73.66161 5005 ft 349 kts
2026-05-06 15:53 -42.18845 -73.65886 5002 ft 315 kts
2026-05-06 15:53 -42.16757 -73.65742 5008 ft 287 kts
2026-05-06 15:53 -42.14844 -73.65618 5021 ft 264 kts
2026-05-06 15:54 -42.13081 -73.65480 5009 ft 243 kts
2026-05-06 15:54 -42.11502 -73.65318 5312 ft 207 kts
2026-05-06 15:54 -42.10134 -73.65144 5528 ft 194 kts
2026-05-06 15:54 -42.08787 -73.64944 5735 ft 194 kts
2026-05-06 15:55 -42.07448 -73.64711 5908 ft 194 kts
2026-05-06 15:55 -42.06107 -73.64438 6085 ft 194 kts
2026-05-06 15:55 -42.04776 -73.64136 6239 ft 194 kts
2026-05-06 15:55 -42.03462 -73.63819 6395 ft 195 kts
2026-05-06 15:56 -42.02124 -73.63491 6540 ft 195 kts
2026-05-06 15:56 -42.00787 -73.63248 6622 ft 194 kts 350°
2026-05-06 15:56 -41.99584 -73.64045 6077 ft 204 kts 302°
2026-05-06 15:56 -41.99240 -73.65883 5520 ft 210 kts 254°
2026-05-06 15:57 -42.00000 -73.67405 5422 ft 196 kts 207°
2026-05-06 15:57 -42.01341 -73.67678 4956 ft 205 kts 168°
2026-05-06 15:57 -42.02704 -73.67253 4960 ft 192 kts 168°
2026-05-06 15:57 -42.04010 -73.66841 5150 ft 195 kts 168°
2026-05-06 15:58 -42.05326 -73.66425 5353 ft 194 kts 168°
2026-05-06 15:58 -42.06649 -73.66053 5548 ft 194 kts 173°
2026-05-06 15:58 -42.07989 -73.65843 5734 ft 193 kts 179°
2026-05-06 15:58 -42.09314 -73.65812 5899 ft 192 kts 184°
2026-05-06 15:59 -42.10653 -73.65916 6061 ft 193 kts 187°
2026-05-06 15:59 -42.11986 -73.66109 6231 ft 192 kts 189°
2026-05-06 15:59 -42.13309 -73.66370 6361 ft 193 kts 191°
2026-05-06 15:59 -42.14634 -73.66667 6514 ft 193 kts 191°
2026-05-06 16:00 -42.15955 -73.66984 6658 ft 192 kts 192°
2026-05-06 16:00 -42.17271 -73.67318 6718 ft 194 kts 192°
2026-05-06 16:00 -42.18598 -73.67656 6734 ft 193 kts 192°
2026-05-06 16:00 -42.19921 -73.67994 6660 ft 194 kts 192°
2026-05-06 16:01 -42.21228 -73.68327 6534 ft 193 kts 192°
2026-05-06 16:01 -42.22543 -73.68662 6360 ft 193 kts 192°
2026-05-06 16:01 -42.23867 -73.68994 6175 ft 193 kts 192°
2026-05-06 16:01 -42.25185 -73.69327 5986 ft 192 kts 192°
2026-05-06 16:02 -42.26500 -73.69665 5781 ft 193 kts 192°
2026-05-06 16:02 -42.27832 -73.69632 5446 ft 200 kts 154°
2026-05-06 16:02 -42.28810 -73.68270 4758 ft 221 kts 105°
2026-05-06 16:02 -42.28764 -73.66290 4645 ft 206 kts 59°
2026-05-06 16:03 -42.27764 -73.65034 4452 ft 202 kts 12°
2026-05-06 16:03 -42.26390 -73.65084 4057 ft 199 kts 342°
2026-05-06 16:03 -42.25113 -73.65559 4056 ft 185 kts 342°
2026-05-06 16:03 -42.23852 -73.66014 4038 ft 188 kts 343°
2026-05-06 16:04 -42.22577 -73.66466 4018 ft 192 kts 343°
2026-05-06 16:04 -42.21724 -73.66751 4003 ft 190 kts 346°
2026-05-06 16:04 -42.20410 -73.67034 4022 ft 192 kts 353°
2026-05-06 16:04 -42.19072 -73.67117 4040 ft 192 kts 359°
2026-05-06 16:05 -42.17740 -73.67045 4168 ft 192 kts
2026-05-06 16:05 -42.16410 -73.66865 4395 ft 192 kts
2026-05-06 16:05 -42.15081 -73.66619 4630 ft 194 kts
2026-05-06 16:05 -42.13753 -73.66331 4844 ft 193 kts
2026-05-06 16:06 -42.12426 -73.66024 5033 ft 194 kts
2026-05-06 16:06 -42.11102 -73.65710 5229 ft 193 kts
2026-05-06 16:06 -42.09779 -73.65388 5396 ft 194 kts
2026-05-06 16:06 -42.08452 -73.65064 5577 ft 194 kts
2026-05-06 16:07 -42.07126 -73.64742 5751 ft 194 kts
2026-05-06 16:07 -42.05797 -73.64420 5924 ft 194 kts
2026-05-06 16:07 -42.04473 -73.64094 6082 ft 194 kts
2026-05-06 16:07 -42.03162 -73.63774 6244 ft 195 kts
2026-05-06 16:08 -42.01828 -73.63452 6405 ft 194 kts
2026-05-06 16:08 -42.00491 -73.63321 6448 ft 196 kts 340°
2026-05-06 16:08 -41.99410 -73.64395 5829 ft 206 kts 291°
2026-05-06 16:08 -41.99330 -73.66285 5363 ft 207 kts 243°
2026-05-06 16:09 -42.00287 -73.67561 5242 ft 196 kts 195°
2026-05-06 16:09 -42.01663 -73.67529 4802 ft 204 kts 167°
2026-05-06 16:09 -42.02983 -73.67089 4859 ft 186 kts 168°
2026-05-06 16:09 -42.04270 -73.66673 4833 ft 193 kts 168°
2026-05-06 16:10 -42.05568 -73.66257 4874 ft 193 kts 168°
2026-05-06 16:10 -42.06880 -73.65904 5004 ft 192 kts 173°
2026-05-06 16:10 -42.08208 -73.65740 5185 ft 192 kts 180°
2026-05-06 16:10 -42.09543 -73.65752 5358 ft 192 kts 184°
2026-05-06 16:11 -42.10875 -73.65879 5543 ft 192 kts 182°
2026-05-06 16:11 -42.12162 -73.65374 5416 ft 204 kts 135°
2026-05-06 16:11 -42.12799 -73.63685 4856 ft 216 kts 87°
2026-05-06 16:11 -42.12321 -73.61844 4543 ft 208 kts 40°
2026-05-06 16:12 -42.11079 -73.61068 4248 ft 199 kts 353°
2026-05-06 16:12 -42.09741 -73.61410 4026 ft 189 kts 343°
2026-05-06 16:12 -42.08479 -73.61834 4080 ft 189 kts 343°
2026-05-06 16:12 -42.07209 -73.62253 4256 ft 188 kts 343°
2026-05-06 16:13 -42.05929 -73.62698 4486 ft 190 kts 344°
2026-05-06 16:13 -42.04649 -73.63144 4688 ft 190 kts 342°
2026-05-06 16:13 -42.03365 -73.63576 4890 ft 191 kts 346°
2026-05-06 16:13 -42.02043 -73.63870 4989 ft 191 kts 352°
2026-05-06 16:14 -42.00721 -73.64007 5182 ft 192 kts 355°
2026-05-06 16:14 -41.99387 -73.64038 5360 ft 192 kts 358°
2026-05-06 16:14 -41.98047 -73.63994 5554 ft 192 kts
2026-05-06 16:14 -41.96708 -73.63896 5736 ft 193 kts
2026-05-06 16:15 -41.95368 -73.63760 5911 ft 193 kts
2026-05-06 16:15 -41.93959 -73.63593 6362 ft 208 kts
2026-05-06 16:15 -41.92532 -73.63409 7185 ft 211 kts
2026-05-06 16:15 -41.91054 -73.63218 7999 ft 215 kts
2026-05-06 16:16 -41.89560 -73.63017 8797 ft 216 kts
2026-05-06 16:16 -41.88050 -73.62808 9599 ft 220 kts
2026-05-06 16:16 -41.86514 -73.62595 10399 ft 223 kts
2026-05-06 16:16 -41.84963 -73.62380 11191 ft 225 kts
2026-05-06 16:17 -41.83396 -73.62163 11972 ft 228 kts
2026-05-06 16:17 -41.81806 -73.61940 12761 ft 232 kts
2026-05-06 16:17 -41.80194 -73.61715 13559 ft 234 kts
2026-05-06 16:17 -41.78563 -73.61488 14344 ft 236 kts
2026-05-06 16:18 -41.76920 -73.61261 15128 ft 239 kts
2026-05-06 16:18 -41.75275 -73.61033 15906 ft 243 kts
2026-05-06 16:18 -41.73579 -73.60800 16691 ft 246 kts
2026-05-06 16:18 -41.71872 -73.60564 17470 ft 248 kts
2026-05-06 16:19 -41.70143 -73.60326 18240 ft 252 kts
2026-05-06 16:19 -41.68342 -73.60079 18680 ft 267 kts
2026-05-06 16:19 -41.66498 -73.59827 18863 ft 264 kts
2026-05-06 16:19 -41.64660 -73.59574 18947 ft 276 kts
2026-05-06 16:20 -41.62713 -73.59309 18981 ft 281 kts
2026-05-06 16:20 -41.60782 -73.59043 18982 ft 277 kts
2026-05-06 16:20 -41.58778 -73.58770 19002 ft 307 kts
2026-05-06 16:20 -41.56537 -73.58469 19003 ft 339 kts
2026-05-06 16:21 -41.54087 -73.58142 19008 ft 368 kts
2026-05-06 16:21 -41.51514 -73.57795 19007 ft 380 kts
2026-05-06 16:21 -41.48893 -73.57440 19004 ft 376 kts
2026-05-06 16:21 -41.46294 -73.57084 19002 ft 375 kts
2026-05-06 16:22 -41.43691 -73.56729 19001 ft 376 kts
2026-05-06 16:22 -41.41085 -73.56373 19002 ft 377 kts
2026-05-06 16:22 -41.38479 -73.56015 19001 ft 376 kts
2026-05-06 16:22 -41.35884 -73.55660 19002 ft 375 kts
2026-05-06 16:23 -41.33282 -73.55306 19000 ft 376 kts
2026-05-06 16:23 -41.30673 -73.54950 19002 ft 376 kts
2026-05-06 16:23 -41.28068 -73.54595 19001 ft 375 kts
2026-05-06 16:23 -41.25470 -73.54240 19000 ft 376 kts
2026-05-06 16:24 -41.22870 -73.53886 19002 ft 376 kts
2026-05-06 16:24 -41.20271 -73.53533 19000 ft 375 kts
2026-05-06 16:24 -41.17677 -73.53180 18999 ft 375 kts
2026-05-06 16:24 -41.15078 -73.52826 19001 ft 376 kts
2026-05-06 16:25 -41.12475 -73.52474 19003 ft 376 kts
2026-05-06 16:25 -41.09905 -73.52126 19002 ft 376 kts
2026-05-06 16:25 -41.07300 -73.51773 19001 ft 376 kts
2026-05-06 16:25 -41.04689 -73.51421 19000 ft 377 kts
2026-05-06 16:26 -41.02080 -73.51069 19000 ft 376 kts
2026-05-06 16:26 -40.99474 -73.50717 18999 ft 376 kts
2026-05-06 16:26 -40.96868 -73.50367 19001 ft 377 kts
2026-05-06 16:26 -40.94251 -73.50015 19000 ft 377 kts
2026-05-06 16:27 -40.91647 -73.49664 19003 ft 376 kts
2026-05-06 16:27 -40.89040 -73.49314 19001 ft 376 kts
2026-05-06 16:27 -40.86437 -73.48964 19002 ft 376 kts
2026-05-06 16:27 -40.83867 -73.48617 19000 ft 376 kts
2026-05-06 16:28 -40.81265 -73.48268 18998 ft 376 kts
2026-05-06 16:28 -40.78666 -73.47920 18998 ft 376 kts
2026-05-06 16:28 -40.76064 -73.47572 18997 ft 376 kts
2026-05-06 16:28 -40.73460 -73.47223 19000 ft 376 kts
2026-05-06 16:29 -40.70851 -73.46875 19001 ft 375 kts
2026-05-06 16:29 -40.68257 -73.46530 19002 ft 375 kts
2026-05-06 16:29 -40.65654 -73.46183 19004 ft 380 kts
2026-05-06 16:29 -40.62932 -73.45822 19006 ft 406 kts
2026-05-06 16:30 -40.60029 -73.45440 19005 ft 430 kts
2026-05-06 16:30 -40.58039 -73.45178 19004 ft 436 kts
2026-05-06 16:30 -40.54011 -73.44646 19000 ft 432 kts
2026-05-06 16:30 -40.51019 -73.44248 19001 ft 433 kts
2026-05-06 16:31 -40.48015 -73.43850 19000 ft 433 kts
2026-05-06 16:31 -40.45029 -73.43316 19000 ft 433 kts 12°
2026-05-06 16:31 -40.42136 -73.42206 19000 ft 435 kts 17°
2026-05-06 16:31 -40.39306 -73.40926 18999 ft 435 kts 19°
2026-05-06 16:32 -40.36454 -73.39577 18997 ft 435 kts 19°
2026-05-06 16:32 -40.33611 -73.38216 18998 ft 435 kts 19°
2026-05-06 16:32 -40.30767 -73.36857 18996 ft 435 kts 19°
2026-05-06 16:32 -40.27914 -73.35504 18994 ft 436 kts 19°
2026-05-06 16:33 -40.25054 -73.34163 18998 ft 436 kts 19°
2026-05-06 16:33 -40.22207 -73.32842 18997 ft 435 kts 19°
2026-05-06 16:33 -40.19332 -73.31522 18998 ft 435 kts 18°
2026-05-06 16:34 -40.13647 -73.28946 19000 ft 435 kts 18°
2026-05-06 16:34 -40.10777 -73.27659 19000 ft 437 kts 18°
2026-05-06 16:34 -40.07896 -73.26376 18999 ft 436 kts 18°
2026-05-06 16:34 -40.05027 -73.25103 18995 ft 435 kts 18°
2026-05-06 16:35 -40.02156 -73.23834 18999 ft 436 kts 18°
2026-05-06 16:35 -39.99282 -73.22568 18999 ft 437 kts 18°
2026-05-06 16:35 -39.96401 -73.21302 19000 ft 436 kts 18°
2026-05-06 16:35 -39.93526 -73.20042 19002 ft 435 kts 18°
2026-05-06 16:36 -39.90656 -73.18785 19000 ft 434 kts 18°
2026-05-06 16:36 -39.87791 -73.17534 19000 ft 434 kts 18°
2026-05-06 16:36 -39.84965 -73.16302 19000 ft 433 kts 18°
2026-05-06 16:36 -39.82097 -73.15054 19001 ft 436 kts 18°
2026-05-06 16:37 -39.79223 -73.13804 19002 ft 435 kts 18°
2026-05-06 16:37 -39.76353 -73.12557 19000 ft 434 kts 18°
2026-05-06 16:37 -39.73484 -73.11313 18999 ft 434 kts 18°
2026-05-06 16:37 -39.70618 -73.10071 18999 ft 433 kts 18°
2026-05-06 16:38 -39.67724 -73.08975 18998 ft 432 kts
2026-05-06 16:38 -39.64733 -73.08625 19002 ft 432 kts
2026-05-06 16:38 -39.61723 -73.08515 19001 ft 432 kts
2026-05-06 16:38 -39.58716 -73.08486 19001 ft 432 kts 359°
2026-05-06 16:39 -39.55713 -73.08493 19001 ft 431 kts 359°
2026-05-06 16:39 -39.52743 -73.08516 18999 ft 432 kts 359°
2026-05-06 16:39 -39.49736 -73.08547 19001 ft 433 kts 359°
2026-05-06 16:39 -39.46682 -73.08579 18999 ft 432 kts 359°
2026-05-06 16:40 -39.43717 -73.08608 18999 ft 431 kts 359°
2026-05-06 16:40 -39.40713 -73.08637 18998 ft 433 kts 359°
2026-05-06 16:40 -39.37696 -73.08663 18994 ft 435 kts 359°
2026-05-06 16:40 -39.34665 -73.08688 18998 ft 436 kts 359°
2026-05-06 16:41 -39.31645 -73.08708 19001 ft 432 kts 359°
2026-05-06 16:41 -39.28646 -73.08727 19003 ft 431 kts 359°
2026-05-06 16:41 -39.25645 -73.08745 19000 ft 432 kts 359°
2026-05-06 16:41 -39.22628 -73.08762 19002 ft 434 kts 359°
2026-05-06 16:42 -39.19604 -73.08777 19000 ft 434 kts 359°
2026-05-06 16:42 -39.16582 -73.08792 19001 ft 432 kts 359°
2026-05-06 16:42 -39.13579 -73.08805 19000 ft 431 kts 359°
2026-05-06 16:42 -39.10569 -73.08818 19000 ft 432 kts 359°
2026-05-06 16:43 -39.07596 -73.08831 18997 ft 434 kts 359°
2026-05-06 16:43 -39.04578 -73.08844 18997 ft 432 kts 359°
2026-05-06 16:43 -39.01576 -73.08855 18998 ft 431 kts 359°
2026-05-06 16:43 -38.98565 -73.08867 18999 ft 432 kts 359°
2026-05-06 16:44 -38.95558 -73.08879 19001 ft 432 kts 359°
2026-05-06 16:44 -38.92547 -73.08890 19003 ft 432 kts 359°
2026-05-06 16:44 -38.89541 -73.08902 19001 ft 433 kts 359°
2026-05-06 16:44 -38.86520 -73.08912 19002 ft 434 kts 359°
2026-05-06 16:45 -38.83503 -73.08923 19001 ft 432 kts 359°
2026-05-06 16:45 -38.80500 -73.08935 18999 ft 432 kts 359°
2026-05-06 16:45 -38.77491 -73.08946 19000 ft 433 kts 359°
2026-05-06 16:45 -38.74478 -73.08957 19001 ft 432 kts 359°
2026-05-06 16:46 -38.71477 -73.08968 19000 ft 431 kts 359°
2026-05-06 16:46 -38.68471 -73.08980 19001 ft 432 kts 359°
2026-05-06 16:46 -38.65464 -73.08990 19002 ft 433 kts 359°
2026-05-06 16:46 -38.62481 -73.09001 19003 ft 433 kts 359°
2026-05-06 16:47 -38.59478 -73.09012 19003 ft 433 kts 359°
2026-05-06 16:47 -38.56446 -73.09022 18999 ft 435 kts 359°
2026-05-06 16:47 -38.53407 -73.09033 19000 ft 437 kts 359°
2026-05-06 16:47 -38.50368 -73.09044 19000 ft 436 kts 359°
2026-05-06 16:48 -38.47344 -73.09056 18997 ft 434 kts 359°
2026-05-06 16:48 -38.44325 -73.09067 18999 ft 434 kts 359°
2026-05-06 16:48 -38.41306 -73.09078 18998 ft 434 kts 359°
2026-05-06 16:48 -38.39293 -73.09085 19001 ft 436 kts 359°
2026-05-06 16:49 -38.36271 -73.09096 18998 ft 432 kts 359°
2026-05-06 16:49 -38.33268 -73.09107 18997 ft 433 kts 359°
2026-05-06 16:49 -38.29266 -73.09122 18999 ft 433 kts 359°
2026-05-06 16:49 -38.27228 -73.09129 18998 ft 434 kts 359°
2026-05-06 16:50 -38.24198 -73.09140 18999 ft 436 kts 359°
2026-05-06 16:50 -38.21161 -73.09152 19002 ft 434 kts 359°
2026-05-06 16:50 -38.18181 -73.09162 19001 ft 435 kts 359°
2026-05-06 16:50 -38.15132 -73.09173 19001 ft 436 kts 359°
2026-05-06 16:51 -38.12101 -73.09183 19006 ft 435 kts 359°
2026-05-06 16:51 -38.09072 -73.09194 19004 ft 434 kts 359°
2026-05-06 16:51 -38.06084 -73.09205 19004 ft 433 kts 359°
2026-05-06 16:51 -38.03074 -73.09215 19003 ft 432 kts 359°
2026-05-06 16:52 -38.00065 -73.09226 18997 ft 432 kts 359°
2026-05-06 16:52 -37.97043 -73.09236 18999 ft 434 kts 359°
2026-05-06 16:52 -37.94015 -73.09248 18994 ft 434 kts 359°
2026-05-06 16:52 -37.90989 -73.09258 18997 ft 435 kts 359°
2026-05-06 16:53 -37.87964 -73.09269 18997 ft 435 kts 359°
2026-05-06 16:53 -37.84964 -73.09279 19002 ft 438 kts 359°
2026-05-06 16:53 -37.81919 -73.09289 19000 ft 436 kts 359°
2026-05-06 16:53 -37.78885 -73.09106 19002 ft 438 kts
2026-05-06 16:54 -37.75873 -73.08403 19001 ft 440 kts 11°
2026-05-06 16:54 -37.72897 -73.07533 18999 ft 437 kts 13°
2026-05-06 16:54 -37.69934 -73.06594 19000 ft 439 kts 13°
2026-05-06 16:54 -37.66988 -73.05622 18998 ft 439 kts 14°
2026-05-06 16:55 -37.64062 -73.04635 18998 ft 439 kts 14°
2026-05-06 16:55 -37.61110 -73.03624 18999 ft 439 kts 14°
2026-05-06 16:55 -37.58171 -73.02609 18999 ft 438 kts 14°
2026-05-06 16:55 -37.55231 -73.01589 18996 ft 438 kts 14°
2026-05-06 16:56 -37.52290 -73.00564 19000 ft 438 kts 14°
2026-05-06 16:56 -37.49356 -72.99540 18999 ft 437 kts 15°
2026-05-06 16:56 -37.46426 -72.98515 19000 ft 437 kts 15°
2026-05-06 16:56 -37.43491 -72.97488 19000 ft 438 kts 15°
2026-05-06 16:57 -37.40568 -72.96465 19001 ft 435 kts 15°
2026-05-06 16:57 -37.37653 -72.95444 18999 ft 433 kts 15°
2026-05-06 16:57 -37.34747 -72.94426 19000 ft 434 kts 15°
2026-05-06 16:57 -37.31829 -72.93404 19000 ft 435 kts 15°
2026-05-06 16:58 -37.28918 -72.92385 19001 ft 434 kts 15°
2026-05-06 16:58 -37.26041 -72.91378 19000 ft 434 kts 15°
2026-05-06 16:58 -37.23120 -72.90355 19000 ft 434 kts 15°
2026-05-06 16:58 -37.20202 -72.89334 19005 ft 436 kts 15°
2026-05-06 16:59 -37.17280 -72.88313 19001 ft 434 kts 15°
2026-05-06 16:59 -37.14377 -72.87299 19001 ft 433 kts 15°
2026-05-06 16:59 -37.11466 -72.86283 19001 ft 435 kts 15°
2026-05-06 16:59 -37.08550 -72.85266 19001 ft 434 kts 15°
2026-05-06 17:00 -37.05673 -72.84263 19004 ft 434 kts 15°
2026-05-06 17:00 -37.02767 -72.83250 19001 ft 434 kts 15°
2026-05-06 17:00 -36.99853 -72.82235 18999 ft 434 kts 15°
2026-05-06 17:00 -36.96945 -72.81223 18999 ft 434 kts 15°
2026-05-06 17:01 -36.94024 -72.80207 18999 ft 435 kts 15°
2026-05-06 17:01 -36.91102 -72.79192 19000 ft 435 kts 15°
2026-05-06 17:01 -36.88184 -72.78178 19000 ft 434 kts 15°
2026-05-06 17:01 -36.85270 -72.77167 19001 ft 434 kts 15°
2026-05-06 17:02 -36.82360 -72.76158 19000 ft 434 kts 15°
2026-05-06 17:02 -36.79449 -72.75150 19000 ft 434 kts 15°
2026-05-06 17:02 -36.76571 -72.74153 19000 ft 435 kts 15°
2026-05-06 17:02 -36.73650 -72.73143 18999 ft 434 kts 14°
2026-05-06 17:03 -36.70739 -72.72137 19000 ft 434 kts 14°
2026-05-06 17:03 -36.67822 -72.71129 18998 ft 435 kts 14°
2026-05-06 17:03 -36.64900 -72.70121 19000 ft 435 kts 14°
2026-05-06 17:03 -36.61978 -72.69112 19000 ft 434 kts 14°
2026-05-06 17:04 -36.59100 -72.68121 19001 ft 434 kts 14°
2026-05-06 17:04 -36.56181 -72.67115 19002 ft 435 kts 14°
2026-05-06 17:04 -36.53259 -72.66109 18999 ft 434 kts 14°
2026-05-06 17:04 -36.50347 -72.65108 18999 ft 433 kts 14°
2026-05-06 17:05 -36.47444 -72.64112 19000 ft 434 kts 14°
2026-05-06 17:05 -36.44529 -72.63111 19000 ft 435 kts 14°
2026-05-06 17:05 -36.41613 -72.62111 19000 ft 433 kts 14°
2026-05-06 17:05 -36.38704 -72.61113 19000 ft 434 kts 14°
2026-05-06 17:06 -36.35788 -72.60115 19000 ft 435 kts 14°
2026-05-06 17:06 -36.32872 -72.59115 19000 ft 434 kts 14°
2026-05-06 17:06 -36.29959 -72.58119 18997 ft 434 kts 14°
2026-05-06 17:06 -36.27040 -72.57122 18997 ft 435 kts 14°
2026-05-06 17:07 -36.24125 -72.56127 18996 ft 435 kts 14°
2026-05-06 17:07 -36.21241 -72.55143 18999 ft 434 kts 14°
2026-05-06 17:07 -36.18331 -72.54151 19001 ft 434 kts 14°
2026-05-06 17:07 -36.15413 -72.53157 19000 ft 435 kts 14°
2026-05-06 17:08 -36.12491 -72.52162 18999 ft 436 kts 14°
2026-05-06 17:08 -36.09559 -72.51164 19000 ft 435 kts 14°
2026-05-06 17:08 -36.06647 -72.50173 19000 ft 434 kts 14°
2026-05-06 17:08 -36.03730 -72.49183 19001 ft 436 kts 14°
2026-05-06 17:09 -36.00800 -72.48188 19000 ft 435 kts 14°
2026-05-06 17:09 -35.97922 -72.47211 19001 ft 434 kts 14°
2026-05-06 17:09 -35.95001 -72.46221 18999 ft 436 kts 14°
2026-05-06 17:09 -35.92059 -72.45206 19001 ft 437 kts 17°
2026-05-06 17:10 -35.89234 -72.43851 19001 ft 435 kts 23°
2026-05-06 17:10 -35.86479 -72.42293 19001 ft 435 kts 25°
2026-05-06 17:10 -35.83751 -72.40660 18999 ft 436 kts 25°
2026-05-06 17:10 -35.81031 -72.38986 18997 ft 437 kts 26°
2026-05-06 17:11 -35.78316 -72.37289 18997 ft 437 kts 26°
2026-05-06 17:11 -35.75608 -72.35582 18999 ft 436 kts 26°
2026-05-06 17:11 -35.72946 -72.33895 19001 ft 436 kts 26°
2026-05-06 17:11 -35.70251 -72.32182 19001 ft 437 kts 26°
2026-05-06 17:12 -35.67553 -72.30465 19002 ft 436 kts 26°
2026-05-06 17:12 -35.64860 -72.28750 19000 ft 436 kts 27°
2026-05-06 17:12 -35.62158 -72.27026 19002 ft 437 kts 27°
2026-05-06 17:12 -35.59459 -72.25304 19001 ft 437 kts 27°
2026-05-06 17:13 -35.56763 -72.23585 19001 ft 437 kts 27°
2026-05-06 17:13 -35.54057 -72.21859 19003 ft 438 kts 27°
2026-05-06 17:13 -35.51358 -72.20138 19000 ft 436 kts 27°
2026-05-06 17:13 -35.48665 -72.18422 19002 ft 436 kts 27°
2026-05-06 17:14 -35.45971 -72.16708 19003 ft 437 kts 27°
2026-05-06 17:14 -35.43271 -72.14990 19003 ft 436 kts 27°
2026-05-06 17:14 -35.40582 -72.13279 19000 ft 435 kts 27°
2026-05-06 17:14 -35.37886 -72.11565 19001 ft 437 kts 27°
2026-05-06 17:15 -35.35183 -72.09848 19000 ft 437 kts 27°
2026-05-06 17:15 -35.32521 -72.08157 19002 ft 436 kts 27°
2026-05-06 17:15 -35.29818 -72.06443 19001 ft 435 kts 26°
2026-05-06 17:15 -35.27125 -72.04736 19001 ft 435 kts 26°
2026-05-06 17:16 -35.24438 -72.03035 19005 ft 435 kts 26°
2026-05-06 17:16 -35.21774 -72.01348 19002 ft 435 kts 26°
2026-05-06 17:16 -35.19091 -71.99650 18999 ft 434 kts 26°
2026-05-06 17:16 -35.16403 -71.97950 19000 ft 435 kts 26°
2026-05-06 17:17 -35.13712 -71.96250 19000 ft 436 kts 26°
2026-05-06 17:17 -35.11024 -71.94552 18999 ft 434 kts 26°
2026-05-06 17:17 -35.08337 -71.92857 19002 ft 434 kts 26°
2026-05-06 17:17 -35.05647 -71.91162 19001 ft 435 kts 26°
2026-05-06 17:18 -35.02953 -71.89465 19000 ft 435 kts 26°
2026-05-06 17:18 -35.00261 -71.87771 18997 ft 436 kts 26°
2026-05-06 17:18 -34.97567 -71.86076 18997 ft 435 kts 26°
2026-05-06 17:18 -34.94880 -71.84386 18999 ft 434 kts 26°
2026-05-06 17:19 -34.92219 -71.82715 19000 ft 436 kts 26°
2026-05-06 17:19 -34.89520 -71.81020 18999 ft 435 kts 26°
2026-05-06 17:19 -34.86826 -71.79330 19000 ft 434 kts 26°
2026-05-06 17:19 -34.84134 -71.77644 19002 ft 436 kts 26°
2026-05-06 17:20 -34.81438 -71.75955 18999 ft 436 kts 26°
2026-05-06 17:20 -34.78744 -71.74270 18997 ft 434 kts 26°
2026-05-06 17:20 -34.76061 -71.72591 18998 ft 434 kts 26°
2026-05-06 17:20 -34.73361 -71.70904 18999 ft 436 kts 26°
2026-05-06 17:21 -34.70670 -71.69223 18996 ft 435 kts 26°
2026-05-06 17:21 -34.67981 -71.67545 18997 ft 434 kts 26°
2026-05-06 17:21 -34.65277 -71.65859 19001 ft 437 kts 26°
2026-05-06 17:21 -34.62566 -71.64169 18999 ft 436 kts 26°
2026-05-06 17:22 -34.59907 -71.62509 18999 ft 434 kts 26°
2026-05-06 17:22 -34.57218 -71.60799 19000 ft 437 kts 27°
2026-05-06 17:22 -34.54538 -71.59070 18999 ft 436 kts 27°
2026-05-06 17:22 -34.51865 -71.57332 18999 ft 435 kts 27°
2026-05-06 17:23 -34.49196 -71.55590 19000 ft 436 kts 27°
2026-05-06 17:23 -34.46527 -71.53843 18999 ft 436 kts 27°
2026-05-06 17:23 -34.43881 -71.52108 18999 ft 435 kts 27°
2026-05-06 17:23 -34.41201 -71.50351 19000 ft 435 kts 27°
2026-05-06 17:24 -34.38533 -71.48602 19000 ft 435 kts 27°
2026-05-06 17:24 -34.35900 -71.46878 19000 ft 436 kts 27°
2026-05-06 17:24 -34.33230 -71.45130 19000 ft 435 kts 27°
2026-05-06 17:24 -34.30552 -71.43413 18996 ft 434 kts 24°
2026-05-06 17:25 -34.27643 -71.42544 19007 ft 432 kts
2026-05-06 17:25 -34.24651 -71.42871 19008 ft 432 kts 349°
2026-05-06 17:25 -34.21705 -71.43581 19003 ft 431 kts 347°
2026-05-06 17:25 -34.18781 -71.44408 19002 ft 430 kts 345°
2026-05-06 17:26 -34.15873 -71.45291 19000 ft 431 kts 345°
2026-05-06 17:26 -34.12973 -71.46205 18998 ft 431 kts 344°
2026-05-06 17:26 -34.10078 -71.47134 18998 ft 431 kts 344°
2026-05-06 17:26 -34.07175 -71.48074 18999 ft 432 kts 344°
2026-05-06 17:27 -34.04274 -71.49017 19000 ft 431 kts 344°
2026-05-06 17:27 -34.01410 -71.49950 19002 ft 432 kts 344°
2026-05-06 17:27 -33.98508 -71.50893 19001 ft 432 kts 344°
2026-05-06 17:27 -33.95607 -71.51835 19000 ft 431 kts 344°
2026-05-06 17:28 -33.92712 -71.52773 18998 ft 430 kts 344°
2026-05-06 17:28 -33.89821 -71.53709 18997 ft 431 kts 344°
2026-05-06 17:28 -33.86917 -71.54648 19000 ft 431 kts 344°
2026-05-06 17:28 -33.84024 -71.55581 19001 ft 431 kts 344°
2026-05-06 17:29 -33.81121 -71.56516 18999 ft 431 kts 344°
2026-05-06 17:29 -33.78223 -71.57449 18999 ft 432 kts 344°
2026-05-06 17:29 -33.75348 -71.58372 19000 ft 432 kts 344°
2026-05-06 17:29 -33.72444 -71.59304 18999 ft 431 kts 344°
2026-05-06 17:30 -33.69543 -71.60225 18999 ft 431 kts 346°
2026-05-06 17:30 -33.66564 -71.60605 19000 ft 432 kts 358°
2026-05-06 17:30 -33.63552 -71.60535 18999 ft 433 kts
2026-05-06 17:30 -33.60547 -71.60331 19001 ft 432 kts
2026-05-06 17:31 -33.57549 -71.60061 19001 ft 432 kts
2026-05-06 17:31 -33.54550 -71.59752 19002 ft 433 kts
2026-05-06 17:31 -33.51580 -71.59423 19002 ft 433 kts
2026-05-06 17:31 -33.48582 -71.59075 19001 ft 432 kts
2026-05-06 17:32 -33.45587 -71.58716 19001 ft 433 kts
2026-05-06 17:32 -33.42579 -71.58349 19001 ft 434 kts
2026-05-06 17:32 -33.39579 -71.57978 19000 ft 433 kts
2026-05-06 17:32 -33.36580 -71.57603 18999 ft 433 kts
2026-05-06 17:33 -33.33574 -71.57224 18999 ft 434 kts
2026-05-06 17:33 -33.30567 -71.56843 19000 ft 434 kts
2026-05-06 17:33 -33.27562 -71.56462 19000 ft 435 kts
2026-05-06 17:33 -33.24547 -71.56078 18999 ft 434 kts
2026-05-06 17:34 -33.21585 -71.55700 19000 ft 434 kts
2026-05-06 17:34 -33.18576 -71.55315 19001 ft 435 kts
2026-05-06 17:34 -33.15567 -71.54931 19000 ft 435 kts
2026-05-06 17:34 -33.12562 -71.54546 19000 ft 433 kts
2026-05-06 17:35 -33.09562 -71.54162 19000 ft 434 kts
2026-05-06 17:35 -33.06552 -71.53778 19000 ft 435 kts
2026-05-06 17:35 -33.03545 -71.53394 19000 ft 433 kts
2026-05-06 17:36 -32.97553 -71.52628 19001 ft 433 kts
2026-05-06 17:36 -32.95567 -71.52374 19002 ft 433 kts
2026-05-06 17:36 -32.92564 -71.51991 19002 ft 433 kts
2026-05-06 17:36 -32.90011 -71.51665 18999 ft 432 kts
2026-05-06 17:37 -32.87024 -71.51284 19000 ft 431 kts
2026-05-06 17:37 -32.84027 -71.50902 18999 ft 432 kts
2026-05-06 17:37 -32.81032 -71.50521 19000 ft 433 kts
2026-05-06 17:37 -32.78027 -71.50136 18997 ft 432 kts
2026-05-06 17:38 -32.75175 -71.49214 19002 ft 434 kts 25°
2026-05-06 17:38 -32.72775 -71.47064 19011 ft 436 kts 48°
2026-05-06 17:38 -32.71215 -71.43979 19013 ft 439 kts 70°
2026-05-06 17:38 -32.70728 -71.40424 19014 ft 438 kts 92°
2026-05-06 17:39 -32.71381 -71.36920 19015 ft 437 kts 114°
2026-05-06 17:39 -32.73081 -71.33929 19021 ft 438 kts 133°
2026-05-06 17:39 -32.75236 -71.31348 19006 ft 440 kts 135°
2026-05-06 17:39 -32.77347 -71.28718 19002 ft 439 kts 132°
2026-05-06 17:40 -32.79267 -71.25891 18997 ft 440 kts 126°
2026-05-06 17:40 -32.80898 -71.22818 18987 ft 438 kts 115°
2026-05-06 17:40 -32.81662 -71.19342 19002 ft 438 kts 93°
2026-05-06 17:40 -32.81306 -71.15792 19005 ft 440 kts 72°
2026-05-06 17:41 -32.79869 -71.12604 19011 ft 438 kts 50°
2026-05-06 17:41 -32.77548 -71.10268 19014 ft 439 kts 28°
2026-05-06 17:41 -32.74666 -71.09107 19013 ft 439 kts
2026-05-06 17:41 -32.71640 -71.09285 19014 ft 437 kts 345°
2026-05-06 17:42 -32.68799 -71.10502 19006 ft 433 kts 336°
2026-05-06 17:42 -32.66026 -71.11912 18997 ft 435 kts 336°
2026-05-06 17:42 -32.63258 -71.13239 18993 ft 434 kts 338°
2026-05-06 17:42 -32.60402 -71.14434 18996 ft 436 kts 341°
2026-05-06 17:43 -32.57490 -71.15461 18980 ft 436 kts 344°
2026-05-06 17:43 -32.54556 -71.16323 18988 ft 434 kts 346°
2026-05-06 17:43 -32.51601 -71.17050 18991 ft 430 kts 348°
2026-05-06 17:43 -32.48647 -71.17657 18995 ft 432 kts 350°
2026-05-06 17:44 -32.45669 -71.18166 18996 ft 432 kts 352°
2026-05-06 17:44 -32.42683 -71.18589 18998 ft 432 kts 353°
2026-05-06 17:44 -32.39685 -71.18942 18996 ft 435 kts 354°
2026-05-06 17:44 -32.36671 -71.19236 18997 ft 434 kts 355°
2026-05-06 17:45 -32.33659 -71.19480 18994 ft 432 kts 355°
2026-05-06 17:45 -32.30662 -71.19685 18996 ft 431 kts 356°
2026-05-06 17:45 -32.27696 -71.19856 18998 ft 435 kts 356°
2026-05-06 17:45 -32.24659 -71.20005 19000 ft 436 kts 357°
2026-05-06 17:46 -32.21638 -71.20133 19000 ft 434 kts 357°
2026-05-06 17:46 -32.18607 -71.20244 19001 ft 438 kts 357°
2026-05-06 17:46 -32.15560 -71.20343 19000 ft 439 kts 358°
2026-05-06 17:46 -32.12485 -71.20431 19003 ft 442 kts 358°
2026-05-06 17:47 -32.09423 -71.20511 18999 ft 437 kts 358°
2026-05-06 17:47 -32.06400 -71.20583 19000 ft 433 kts 358°
2026-05-06 17:47 -32.03372 -71.20650 19002 ft 436 kts 358°
2026-05-06 17:47 -32.00337 -71.20715 18997 ft 436 kts 358°
2026-05-06 17:48 -31.97329 -71.20776 18999 ft 438 kts 358°
2026-05-06 17:48 -31.94285 -71.20835 18995 ft 436 kts 358°
2026-05-06 17:48 -31.91244 -71.20893 18998 ft 434 kts 358°
2026-05-06 17:48 -31.88227 -71.20950 18998 ft 434 kts 358°
2026-05-06 17:49 -31.85188 -71.21007 19001 ft 438 kts 358°
2026-05-06 17:49 -31.82143 -71.21060 18998 ft 435 kts 359°
2026-05-06 17:49 -31.79120 -71.21027 18996 ft 434 kts
2026-05-06 17:49 -31.76090 -71.20920 18997 ft 436 kts
2026-05-06 17:50 -31.73110 -71.20779 18995 ft 433 kts
2026-05-06 17:50 -31.70099 -71.20619 18996 ft 433 kts
2026-05-06 17:50 -31.67066 -71.20448 18999 ft 436 kts
2026-05-06 17:50 -31.64043 -71.20272 18995 ft 433 kts
2026-05-06 17:51 -31.61031 -71.20093 18996 ft 434 kts
2026-05-06 17:51 -31.58003 -71.19911 18994 ft 437 kts
2026-05-06 17:51 -31.54964 -71.19728 18995 ft 436 kts
2026-05-06 17:51 -31.51923 -71.19545 18999 ft 439 kts
2026-05-06 17:52 -31.48859 -71.19359 19001 ft 440 kts
2026-05-06 17:52 -31.45810 -71.19176 18998 ft 437 kts
2026-05-06 17:52 -31.42805 -71.18994 19001 ft 438 kts
2026-05-06 17:52 -31.39762 -71.18810 19002 ft 437 kts
2026-05-06 17:53 -31.36716 -71.18626 19003 ft 436 kts
2026-05-06 17:53 -31.33680 -71.18443 19005 ft 439 kts
2026-05-06 17:53 -31.30620 -71.18259 18999 ft 438 kts
2026-05-06 17:53 -31.27580 -71.18075 19000 ft 435 kts
2026-05-06 17:54 -31.24590 -71.17896 19002 ft 436 kts
2026-05-06 17:54 -31.21547 -71.17713 19000 ft 438 kts
2026-05-06 17:54 -31.18506 -71.17530 18998 ft 438 kts
2026-05-06 17:54 -31.15462 -71.17348 18996 ft 438 kts
2026-05-06 17:55 -31.12420 -71.17166 19000 ft 437 kts
2026-05-06 17:55 -31.09384 -71.16984 18997 ft 436 kts
2026-05-06 17:55 -31.06351 -71.16803 18999 ft 436 kts
2026-05-06 17:55 -31.03318 -71.16621 18997 ft 437 kts
2026-05-06 17:56 -31.00277 -71.16440 18999 ft 437 kts
2026-05-06 17:56 -30.97240 -71.16257 19000 ft 436 kts
2026-05-06 17:56 -30.94219 -71.16074 19000 ft 436 kts
2026-05-06 17:56 -30.91180 -71.15890 19000 ft 435 kts
2026-05-06 17:57 -30.88192 -71.15709 19001 ft 436 kts
2026-05-06 17:57 -30.85159 -71.15524 19000 ft 437 kts
2026-05-06 17:57 -30.82127 -71.15340 19000 ft 436 kts
2026-05-06 17:57 -30.79090 -71.15157 19001 ft 437 kts
2026-05-06 17:58 -30.76053 -71.14975 19000 ft 437 kts
2026-05-06 17:58 -30.73013 -71.14792 18993 ft 436 kts
2026-05-06 17:58 -30.69977 -71.14610 19001 ft 437 kts
2026-05-06 17:58 -30.66945 -71.14428 18998 ft 434 kts
2026-05-06 17:59 -30.63930 -71.14248 18997 ft 433 kts
2026-05-06 17:59 -30.60916 -71.14068 18999 ft 434 kts
2026-05-06 17:59 -30.57900 -71.13889 18998 ft 434 kts
2026-05-06 17:59 -30.54885 -71.13710 19002 ft 434 kts
2026-05-06 18:00 -30.51865 -71.13530 19000 ft 434 kts
2026-05-06 18:00 -30.48847 -71.13350 19000 ft 434 kts
2026-05-06 18:00 -30.45833 -71.13171 19002 ft 434 kts
2026-05-06 18:00 -30.42845 -71.12994 19004 ft 436 kts
2026-05-06 18:01 -30.39816 -71.12816 19000 ft 435 kts
2026-05-06 18:01 -30.36795 -71.12638 18999 ft 434 kts
2026-05-06 18:01 -30.33774 -71.12462 18999 ft 435 kts
2026-05-06 18:01 -30.30751 -71.12286 19000 ft 436 kts
2026-05-06 18:02 -30.27715 -71.12101 19002 ft 438 kts
2026-05-06 18:02 -30.24661 -71.11856 19000 ft 440 kts
2026-05-06 18:02 -30.21619 -71.11571 19000 ft 438 kts
2026-05-06 18:02 -30.18573 -71.11267 19000 ft 437 kts
2026-05-06 18:03 -30.15553 -71.10954 19003 ft 434 kts
2026-05-06 18:03 -30.12567 -71.10640 19003 ft 437 kts
2026-05-06 18:03 -30.09528 -71.10317 18999 ft 439 kts
2026-05-06 18:03 -30.06493 -71.09992 18995 ft 437 kts
2026-05-06 18:04 -30.03473 -71.09668 19000 ft 435 kts
2026-05-06 18:04 -30.00460 -71.09344 19001 ft 435 kts
2026-05-06 18:04 -29.97448 -71.09021 19000 ft 433 kts
2026-05-06 18:04 -29.94445 -71.08698 18999 ft 433 kts
2026-05-06 18:05 -29.91431 -71.08375 19002 ft 436 kts
2026-05-06 18:05 -29.88457 -71.08057 19001 ft 436 kts
2026-05-06 18:05 -29.85441 -71.07733 19001 ft 434 kts
2026-05-06 18:05 -29.82431 -71.07410 19001 ft 435 kts
2026-05-06 18:06 -29.79412 -71.07087 19002 ft 436 kts
2026-05-06 18:06 -29.76397 -71.06765 19000 ft 433 kts
2026-05-06 18:06 -29.73389 -71.06444 19000 ft 436 kts
2026-05-06 18:06 -29.70339 -71.06118 19006 ft 442 kts
2026-05-06 18:07 -29.67284 -71.05792 18999 ft 439 kts
2026-05-06 18:07 -29.64243 -71.05468 19000 ft 439 kts
2026-05-06 18:07 -29.61183 -71.05142 19003 ft 443 kts
2026-05-06 18:07 -29.58163 -71.04820 19001 ft 441 kts
2026-05-06 18:08 -29.55110 -71.04496 18999 ft 440 kts
2026-05-06 18:08 -29.52058 -71.04170 19002 ft 439 kts
2026-05-06 18:08 -29.49016 -71.03843 19001 ft 439 kts
2026-05-06 18:08 -29.45978 -71.03470 19000 ft 438 kts
2026-05-06 18:09 -29.42939 -71.03055 19002 ft 437 kts
2026-05-06 18:09 -29.39931 -71.02617 19001 ft 435 kts
2026-05-06 18:09 -29.36957 -71.02168 19003 ft 436 kts
2026-05-06 18:09 -29.33954 -71.01704 19000 ft 435 kts
2026-05-06 18:10 -29.30958 -71.01236 18999 ft 436 kts
2026-05-06 18:10 -29.27932 -71.00828 19002 ft 439 kts
2026-05-06 18:10 -29.24894 -71.00477 19003 ft 438 kts
2026-05-06 18:10 -29.21867 -71.00157 19002 ft 436 kts
2026-05-06 18:11 -29.18836 -70.99853 19002 ft 438 kts
2026-05-06 18:11 -29.15794 -70.99556 19002 ft 439 kts
2026-05-06 18:11 -29.12748 -70.99265 18999 ft 439 kts
2026-05-06 18:11 -29.09702 -70.98976 18999 ft 439 kts
2026-05-06 18:12 -29.06657 -70.98689 18997 ft 438 kts
2026-05-06 18:12 -29.03619 -70.98403 18999 ft 437 kts
2026-05-06 18:12 -29.00588 -70.98119 18998 ft 437 kts
2026-05-06 18:12 -28.97559 -70.97836 18999 ft 436 kts
2026-05-06 18:13 -28.94533 -70.97554 18998 ft 436 kts
2026-05-06 18:13 -28.91506 -70.97270 18998 ft 437 kts
2026-05-06 18:13 -28.88463 -70.96986 18999 ft 439 kts
2026-05-06 18:13 -28.85426 -70.96702 18997 ft 437 kts
2026-05-06 18:14 -28.82399 -70.96420 18995 ft 437 kts
2026-05-06 18:14 -28.79399 -70.96140 18998 ft 440 kts
2026-05-06 18:14 -28.76348 -70.95856 19001 ft 439 kts
2026-05-06 18:14 -28.73312 -70.95572 18997 ft 436 kts
2026-05-06 18:15 -28.70281 -70.95290 18992 ft 436 kts
2026-05-06 18:15 -28.67254 -70.95008 18996 ft 437 kts
2026-05-06 18:15 -28.64220 -70.94726 18992 ft 439 kts
2026-05-06 18:15 -28.61271 -70.94452 18999 ft 439 kts
2026-05-06 18:16 -28.58234 -70.94169 19001 ft 435 kts
2026-05-06 18:16 -28.55221 -70.93888 19001 ft 433 kts
2026-05-06 18:16 -28.52221 -70.93604 19000 ft 433 kts
2026-05-06 18:16 -28.49253 -70.93312 19001 ft 434 kts
2026-05-06 18:17 -28.46237 -70.93009 18999 ft 435 kts
2026-05-06 18:17 -28.43214 -70.92700 18999 ft 437 kts
2026-05-06 18:17 -28.40188 -70.92388 19000 ft 436 kts
2026-05-06 18:17 -28.37164 -70.92074 19000 ft 434 kts
2026-05-06 18:18 -28.34147 -70.91760 19003 ft 436 kts
2026-05-06 18:18 -28.31124 -70.91445 18999 ft 436 kts
2026-05-06 18:18 -28.28104 -70.91128 18999 ft 436 kts
2026-05-06 18:18 -28.25119 -70.90812 19001 ft 436 kts
2026-05-06 18:19 -28.22102 -70.90492 19001 ft 434 kts
2026-05-06 18:19 -28.19092 -70.90173 19000 ft 434 kts
2026-05-06 18:19 -28.16077 -70.89852 19003 ft 436 kts
2026-05-06 18:19 -28.13065 -70.89532 19000 ft 434 kts
2026-05-06 18:20 -28.10059 -70.89212 19002 ft 434 kts
2026-05-06 18:20 -28.07044 -70.88892 19000 ft 436 kts
2026-05-06 18:20 -28.04022 -70.88571 19001 ft 436 kts
2026-05-06 18:20 -28.01004 -70.88250 18999 ft 434 kts
2026-05-06 18:21 -27.98002 -70.87931 18998 ft 433 kts
2026-05-06 18:21 -27.94997 -70.87612 18997 ft 434 kts
2026-05-06 18:21 -27.91987 -70.87293 18997 ft 434 kts
2026-05-06 18:21 -27.88979 -70.86973 18997 ft 433 kts
2026-05-06 18:22 -27.85978 -70.86655 18996 ft 433 kts
2026-05-06 18:22 -27.82969 -70.86337 18999 ft 435 kts
2026-05-06 18:22 -27.79988 -70.86022 19000 ft 435 kts
2026-05-06 18:22 -27.76978 -70.85703 19000 ft 434 kts
2026-05-06 18:23 -27.73978 -70.85386 18999 ft 432 kts
2026-05-06 18:23 -27.70985 -70.85069 19000 ft 433 kts
2026-05-06 18:23 -27.67983 -70.84752 19000 ft 433 kts
2026-05-06 18:23 -27.64980 -70.84435 18999 ft 433 kts
2026-05-06 18:24 -27.61981 -70.84119 18999 ft 433 kts
2026-05-06 18:24 -27.58976 -70.83802 18999 ft 434 kts
2026-05-06 18:24 -27.56986 -70.83592 19000 ft 434 kts
2026-05-06 18:24 -27.53976 -70.83275 18999 ft 434 kts
2026-05-06 18:25 -27.50965 -70.82958 19000 ft 432 kts
2026-05-06 18:25 -27.46991 -70.82539 19001 ft 433 kts
2026-05-06 18:25 -27.44959 -70.82326 18999 ft 433 kts
2026-05-06 18:25 -27.40979 -70.81907 18999 ft 434 kts
2026-05-06 18:26 -27.38985 -70.81698 18997 ft 433 kts
2026-05-06 18:26 -27.35986 -70.81383 18999 ft 433 kts
2026-05-06 18:26 -27.32982 -70.81067 18999 ft 433 kts
2026-05-06 18:26 -27.29977 -70.80752 18999 ft 433 kts
2026-05-06 18:27 -27.26978 -70.80437 19001 ft 433 kts
2026-05-06 18:27 -27.23978 -70.80123 19000 ft 433 kts
2026-05-06 18:27 -27.20972 -70.79808 18999 ft 433 kts
2026-05-06 18:27 -27.17968 -70.79494 18999 ft 433 kts
2026-05-06 18:28 -27.15010 -70.79184 19001 ft 433 kts
2026-05-06 18:28 -27.12010 -70.78871 19000 ft 433 kts
2026-05-06 18:28 -27.09008 -70.78557 19001 ft 433 kts
2026-05-06 18:28 -27.06003 -70.78243 19000 ft 433 kts
2026-05-06 18:29 -27.03005 -70.77930 19000 ft 432 kts
2026-05-06 18:29 -27.00012 -70.77617 19001 ft 432 kts
2026-05-06 18:29 -26.97017 -70.77305 19001 ft 433 kts
2026-05-06 18:29 -26.94018 -70.76993 19001 ft 433 kts
2026-05-06 18:30 -26.91008 -70.76679 19002 ft 434 kts
2026-05-06 18:30 -26.87999 -70.76365 19002 ft 434 kts
2026-05-06 18:30 -26.84993 -70.76052 18999 ft 433 kts
2026-05-06 18:30 -26.81989 -70.75739 19002 ft 434 kts
2026-05-06 18:31 -26.78974 -70.75426 19003 ft 435 kts
2026-05-06 18:31 -26.75961 -70.75112 19000 ft 432 kts
2026-05-06 18:31 -26.72973 -70.74801 18999 ft 431 kts
2026-05-06 18:31 -26.70016 -70.74481 19001 ft 433 kts
2026-05-06 18:32 -26.67019 -70.74084 19001 ft 433 kts
2026-05-06 18:32 -26.64031 -70.73638 18997 ft 432 kts
2026-05-06 18:32 -26.61057 -70.73164 18999 ft 432 kts
2026-05-06 18:32 -26.58072 -70.72671 19002 ft 433 kts
2026-05-06 18:33 -26.55089 -70.72167 18998 ft 433 kts
2026-05-06 18:33 -26.52114 -70.71657 18999 ft 432 kts
2026-05-06 18:33 -26.49178 -70.71150 18999 ft 432 kts
2026-05-06 18:33 -26.46199 -70.70706 18998 ft 432 kts
2026-05-06 18:34 -26.43200 -70.70351 18999 ft 433 kts
2026-05-06 18:34 -26.40201 -70.70038 18999 ft 432 kts
2026-05-06 18:34 -26.37199 -70.69746 18998 ft 432 kts
2026-05-06 18:34 -26.34205 -70.69468 18999 ft 432 kts
2026-05-06 18:35 -26.31206 -70.69195 18999 ft 432 kts
2026-05-06 18:35 -26.28202 -70.68926 18999 ft 433 kts
2026-05-06 18:35 -26.25198 -70.68659 19000 ft 432 kts
2026-05-06 18:35 -26.22241 -70.68397 18999 ft 432 kts
2026-05-06 18:36 -26.19244 -70.68133 19000 ft 432 kts
2026-05-06 18:36 -26.16244 -70.67869 19000 ft 432 kts
2026-05-06 18:36 -26.13237 -70.67605 19000 ft 432 kts
2026-05-06 18:36 -26.10239 -70.67342 18999 ft 432 kts
2026-05-06 18:37 -26.07242 -70.67079 19000 ft 432 kts
2026-05-06 18:37 -26.04243 -70.66816 18999 ft 432 kts
2026-05-06 18:37 -26.01237 -70.66553 18765 ft 433 kts
2026-05-06 18:37 -25.98271 -70.66292 19165 ft 434 kts
2026-05-06 18:38 -25.95275 -70.66031 18798 ft 437 kts
2026-05-06 18:38 -25.92263 -70.65767 18242 ft 427 kts
2026-05-06 18:38 -25.89348 -70.65511 17572 ft 411 kts
2026-05-06 18:38 -25.87614 -70.65358 17165 ft 403 kts
2026-05-06 18:39 -25.84785 -70.65109 16470 ft 391 kts
2026-05-06 18:39 -25.82110 -70.64874 15794 ft 380 kts
2026-05-06 18:39 -25.79500 -70.64646 15116 ft 372 kts
2026-05-06 18:40 -25.74518 -70.64210 14229 ft 346 kts
2026-05-06 18:40 -25.72189 -70.64005 14100 ft 326 kts
2026-05-06 18:40 -25.69989 -70.63812 14044 ft 309 kts
2026-05-06 18:40 -25.67846 -70.63625 14021 ft 309 kts
2026-05-06 18:41 -25.65704 -70.63440 14014 ft 309 kts
2026-05-06 18:41 -25.63570 -70.63255 14015 ft 307 kts
2026-05-06 18:41 -25.61438 -70.63072 14011 ft 308 kts
2026-05-06 18:41 -25.59300 -70.62887 14010 ft 309 kts
2026-05-06 18:42 -25.57156 -70.62701 14007 ft 308 kts
2026-05-06 18:42 -25.55023 -70.62517 14011 ft 307 kts
2026-05-06 18:42 -25.52883 -70.62331 14008 ft 309 kts
2026-05-06 18:42 -25.50743 -70.62145 14005 ft 308 kts
2026-05-06 18:43 -25.48640 -70.61962 14001 ft 307 kts
2026-05-06 18:43 -25.46503 -70.61776 14006 ft 308 kts
2026-05-06 18:43 -25.44362 -70.61591 14001 ft 308 kts
2026-05-06 18:43 -25.42228 -70.61407 14000 ft 307 kts
2026-05-06 18:44 -25.40094 -70.61223 14004 ft 307 kts
2026-05-06 18:44 -25.37961 -70.61038 14003 ft 308 kts
2026-05-06 18:44 -25.35848 -70.60856 14004 ft 308 kts
2026-05-06 18:44 -25.33715 -70.60672 14002 ft 307 kts
2026-05-06 18:45 -25.31585 -70.60488 13998 ft 307 kts
2026-05-06 18:45 -25.29450 -70.60304 14004 ft 308 kts
2026-05-06 18:45 -25.27312 -70.60120 14002 ft 308 kts
2026-05-06 18:45 -25.25178 -70.59935 13998 ft 307 kts
2026-05-06 18:46 -25.23049 -70.59752 14000 ft 307 kts
2026-05-06 18:46 -25.20907 -70.59567 14001 ft 308 kts
2026-05-06 18:46 -25.18771 -70.59383 13998 ft 307 kts
2026-05-06 18:46 -25.16640 -70.59199 14005 ft 307 kts
2026-05-06 18:47 -25.14507 -70.59016 14003 ft 307 kts
2026-05-06 18:47 -25.12374 -70.58832 14001 ft 308 kts
2026-05-06 18:47 -25.10237 -70.58648 13999 ft 307 kts
2026-05-06 18:47 -25.08136 -70.58467 14003 ft 307 kts
2026-05-06 18:48 -25.05976 -70.58281 14003 ft 308 kts
2026-05-06 18:48 -25.03841 -70.58098 14001 ft 308 kts
2026-05-06 18:48 -25.01732 -70.57916 14000 ft 307 kts
2026-05-06 18:48 -24.99597 -70.57732 13998 ft 307 kts
2026-05-06 18:49 -24.97462 -70.57550 14002 ft 308 kts
2026-05-06 18:49 -24.95329 -70.57348 14005 ft 308 kts
2026-05-06 18:49 -24.93200 -70.57121 13997 ft 307 kts
2026-05-06 18:49 -24.91057 -70.56884 13579 ft 316 kts
2026-05-06 18:50 -24.88851 -70.56639 12837 ft 319 kts
2026-05-06 18:50 -24.86635 -70.56393 12109 ft 321 kts
2026-05-06 18:50 -24.84448 -70.56149 11502 ft 318 kts
2026-05-06 18:50 -24.82283 -70.55907 11220 ft 305 kts
2026-05-06 18:51 -24.80218 -70.55674 11098 ft 294 kts
2026-05-06 18:51 -24.78182 -70.55444 11046 ft 294 kts
2026-05-06 18:51 -24.76141 -70.55214 11025 ft 294 kts
2026-05-06 18:51 -24.74107 -70.54986 11021 ft 294 kts
2026-05-06 18:52 -24.72064 -70.54757 11018 ft 296 kts
2026-05-06 18:52 -24.70011 -70.54527 11017 ft 296 kts
2026-05-06 18:52 -24.67955 -70.54298 11019 ft 297 kts
2026-05-06 18:52 -24.65899 -70.54067 11017 ft 297 kts
2026-05-06 18:53 -24.63849 -70.53818 11015 ft 297 kts
2026-05-06 18:53 -24.61798 -70.53560 11022 ft 298 kts
2026-05-06 18:53 -24.59734 -70.53297 11017 ft 296 kts
2026-05-06 18:53 -24.57714 -70.53054 11014 ft 295 kts
2026-05-06 18:54 -24.55664 -70.52840 11006 ft 295 kts
2026-05-06 18:54 -24.53615 -70.52603 11003 ft 297 kts
2026-05-06 18:54 -24.51554 -70.52354 11009 ft 298 kts
2026-05-06 18:54 -24.49498 -70.52100 11009 ft 297 kts
2026-05-06 18:55 -24.47441 -70.51847 11007 ft 298 kts
2026-05-06 18:55 -24.45376 -70.51591 11010 ft 298 kts
2026-05-06 18:55 -24.43315 -70.51336 11016 ft 297 kts
2026-05-06 18:55 -24.41284 -70.51085 11010 ft 297 kts
2026-05-06 18:56 -24.39223 -70.50831 11009 ft 299 kts
2026-05-06 18:56 -24.37159 -70.50575 11002 ft 297 kts
2026-05-06 18:56 -24.35114 -70.50321 10995 ft 295 kts
2026-05-06 18:56 -24.33065 -70.50068 11000 ft 297 kts
2026-05-06 18:57 -24.31009 -70.49815 11001 ft 297 kts
2026-05-06 18:57 -24.28952 -70.49573 11002 ft 297 kts
2026-05-06 18:57 -24.26896 -70.49347 11001 ft 297 kts
2026-05-06 18:57 -24.24832 -70.49125 11002 ft 298 kts
2026-05-06 18:58 -24.22795 -70.48910 11001 ft 297 kts
2026-05-06 18:58 -24.20736 -70.48694 11003 ft 297 kts
2026-05-06 18:58 -24.18679 -70.48480 11003 ft 296 kts
2026-05-06 18:58 -24.16629 -70.48266 11000 ft 296 kts
2026-05-06 18:59 -24.14574 -70.48055 10992 ft 297 kts
2026-05-06 18:59 -24.12515 -70.47843 10994 ft 297 kts
2026-05-06 18:59 -24.10458 -70.47630 10987 ft 296 kts
2026-05-06 18:59 -24.08411 -70.47419 10990 ft 295 kts
2026-05-06 19:00 -24.06359 -70.47209 11001 ft 298 kts
2026-05-06 19:00 -24.04290 -70.46999 10993 ft 299 kts
2026-05-06 19:00 -24.02221 -70.46789 10999 ft 298 kts
2026-05-06 19:00 -24.00853 -70.46650 11000 ft 298 kts
2026-05-06 19:01 -23.98076 -70.46369 10499 ft 307 kts
2026-05-06 19:01 -23.95938 -70.46152 9783 ft 310 kts
2026-05-06 19:01 -23.93782 -70.45934 9065 ft 311 kts
2026-05-06 19:01 -23.91618 -70.45716 8342 ft 312 kts
2026-05-06 19:02 -23.89476 -70.45501 7625 ft 313 kts
2026-05-06 19:02 -23.87305 -70.45284 6895 ft 312 kts
2026-05-06 19:02 -23.85157 -70.45068 6388 ft 305 kts
2026-05-06 19:02 -23.83092 -70.44860 6167 ft 289 kts
2026-05-06 19:03 -23.81148 -70.44662 6077 ft 275 kts
2026-05-06 19:03 -23.79241 -70.44468 6040 ft 275 kts
2026-05-06 19:03 -23.77339 -70.44274 6021 ft 274 kts
2026-05-06 19:03 -23.75443 -70.44083 6015 ft 274 kts
2026-05-06 19:04 -23.73545 -70.43889 6021 ft 274 kts
2026-05-06 19:04 -23.71653 -70.43697 6012 ft 272 kts
2026-05-06 19:04 -23.69760 -70.43505 6009 ft 274 kts
2026-05-06 19:04 -23.67863 -70.43312 6005 ft 273 kts
2026-05-06 19:05 -23.65971 -70.43120 6003 ft 273 kts
2026-05-06 19:05 -23.64072 -70.42928 6002 ft 274 kts
2026-05-06 19:05 -23.62201 -70.42739 5999 ft 273 kts
2026-05-06 19:05 -23.60310 -70.42549 6004 ft 274 kts
2026-05-06 19:06 -23.58412 -70.42359 6001 ft 273 kts
2026-05-06 19:06 -23.56517 -70.42168 6001 ft 273 kts
2026-05-06 19:06 -23.54622 -70.41979 6000 ft 274 kts
2026-05-06 19:06 -23.52725 -70.41790 6001 ft 273 kts
2026-05-06 19:07 -23.50828 -70.41649 6002 ft 273 kts 354°
2026-05-06 19:07 -23.49625 -70.41990 6027 ft 271 kts 330°
2026-05-06 19:07 -23.47893 -70.43939 6026 ft 270 kts 309°
2026-05-06 19:07 -23.46517 -70.45273 6012 ft 269 kts 332°
2026-05-06 19:08 -23.44688 -70.45658 6033 ft 275 kts
2026-05-06 19:08 -23.42835 -70.45127 6015 ft 275 kts 18°
2026-05-06 19:08 -23.41034 -70.44424 6001 ft 275 kts 19°
2026-05-06 19:08 -23.39244 -70.43675 5997 ft 276 kts 20°
2026-05-06 19:09 -23.37460 -70.42905 5997 ft 275 kts 21°
2026-05-06 19:09 -23.35707 -70.42067 6000 ft 276 kts 31°
2026-05-06 19:09 -23.34106 -70.40848 5415 ft 288 kts 37°
2026-05-06 19:09 -23.32520 -70.39487 4716 ft 292 kts 38°
2026-05-06 19:10 -23.30944 -70.38127 4309 ft 284 kts 31°
2026-05-06 19:10 -23.29150 -70.37533 4163 ft 263 kts 355°
2026-05-06 19:10 -23.27534 -70.38153 4110 ft 239 kts 316°
2026-05-06 19:10 -23.26729 -70.39627 4096 ft 228 kts 275°
2026-05-06 19:11 -23.27043 -70.41286 4088 ft 230 kts 234°
2026-05-06 19:11 -23.28077 -70.42603 4054 ft 228 kts 242°
2026-05-06 19:11 -23.28371 -70.44226 4074 ft 228 kts 284°
2026-05-06 19:11 -23.27520 -70.45646 4084 ft 231 kts 327°
2026-05-06 19:12 -23.26019 -70.46286 4058 ft 233 kts 344°
2026-05-06 19:12 -23.24448 -70.46665 4027 ft 231 kts 350°
2026-05-06 19:12 -23.23401 -70.46875 4018 ft 231 kts 340°
2026-05-06 19:12 -23.21852 -70.47336 4026 ft 232 kts
2026-05-06 19:13 -23.20346 -70.46757 4067 ft 238 kts 43°
2026-05-06 19:13 -23.19552 -70.45210 4079 ft 240 kts 85°
2026-05-06 19:13 -23.19864 -70.43468 4081 ft 239 kts 126°
2026-05-06 19:13 -23.21123 -70.42365 4080 ft 235 kts 167°
2026-05-06 19:14 -23.22710 -70.42423 4077 ft 231 kts 207°
2026-05-06 19:14 -23.23986 -70.43445 4056 ft 227 kts 239°
2026-05-06 19:14 -23.24376 -70.45070 4076 ft 229 kts 281°
2026-05-06 19:14 -23.23628 -70.46553 4074 ft 229 kts 323°
2026-05-06 19:15 -23.22136 -70.47128 4073 ft 234 kts 354°
2026-05-06 19:15 -23.20515 -70.47211 4012 ft 232 kts 356°
2026-05-06 19:15 -23.19006 -70.47636 4008 ft 230 kts 321°
2026-05-06 19:15 -23.18121 -70.49027 4033 ft 227 kts 279°
2026-05-06 19:16 -23.18343 -70.50685 4038 ft 228 kts 237°
2026-05-06 19:16 -23.19556 -70.51768 4034 ft 233 kts 196°
2026-05-06 19:16 -23.21175 -70.51936 4002 ft 234 kts 180°
2026-05-06 19:16 -23.22785 -70.51871 3986 ft 231 kts 178°
2026-05-06 19:17 -23.24399 -70.51753 3974 ft 232 kts 177°
2026-05-06 19:17 -23.26006 -70.51613 3976 ft 231 kts 176°
2026-05-06 19:17 -23.27615 -70.51554 3971 ft 232 kts 181°
2026-05-06 19:17 -23.29231 -70.51587 3973 ft 231 kts 183°
2026-05-06 19:18 -23.30838 -70.51648 3973 ft 231 kts 184°
2026-05-06 19:18 -23.32448 -70.51719 3971 ft 231 kts 184°
2026-05-06 19:18 -23.34052 -70.51799 3976 ft 231 kts 184°
2026-05-06 19:18 -23.35635 -70.51886 3976 ft 230 kts 187°
2026-05-06 19:19 -23.37204 -70.52221 3975 ft 230 kts 196°
2026-05-06 19:19 -23.38742 -70.52690 3978 ft 228 kts 198°
2026-05-06 19:19 -23.40273 -70.53179 3978 ft 230 kts 197°
2026-05-06 19:19 -23.41819 -70.53625 3972 ft 229 kts 196°
2026-05-06 19:20 -23.43366 -70.54048 3977 ft 230 kts 195°
2026-05-06 19:20 -23.44935 -70.54402 3960 ft 231 kts 190°
2026-05-06 19:20 -23.46540 -70.54614 3977 ft 231 kts 187°
2026-05-06 19:20 -23.48137 -70.54784 3982 ft 232 kts 187°
2026-05-06 19:21 -23.49738 -70.54934 3997 ft 230 kts 186°
2026-05-06 19:21 -23.51340 -70.55083 4010 ft 232 kts 186°
2026-05-06 19:21 -23.52926 -70.55227 4003 ft 231 kts 186°
2026-05-06 19:21 -23.54526 -70.55368 4006 ft 231 kts 186°
2026-05-06 19:22 -23.56130 -70.55511 4003 ft 231 kts 186°
2026-05-06 19:22 -23.57726 -70.55654 4007 ft 230 kts 186°
2026-05-06 19:22 -23.59335 -70.55800 4008 ft 232 kts 187°
2026-05-06 19:22 -23.60889 -70.56084 4008 ft 229 kts 195°
2026-05-06 19:23 -23.62428 -70.56564 3995 ft 230 kts 198°
2026-05-06 19:23 -23.63958 -70.57064 4005 ft 229 kts 197°
2026-05-06 19:23 -23.65504 -70.57502 3996 ft 230 kts 195°
2026-05-06 19:23 -23.67059 -70.57907 4002 ft 230 kts 194°
2026-05-06 19:24 -23.68644 -70.57914 4007 ft 233 kts 161°
2026-05-06 19:24 -23.69876 -70.56795 4021 ft 237 kts 119°
2026-05-06 19:24 -23.70154 -70.55055 4022 ft 237 kts 78°
2026-05-06 19:24 -23.69346 -70.53534 4024 ft 235 kts 37°
2026-05-06 19:25 -23.67852 -70.52949 4026 ft 231 kts 357°
2026-05-06 19:25 -23.66264 -70.53184 4006 ft 231 kts 359°
2026-05-06 19:25 -23.64785 -70.52575 4004 ft 235 kts 42°
2026-05-06 19:25 -23.63799 -70.51176 4000 ft 236 kts 56°
2026-05-06 19:26 -23.62926 -70.49656 4004 ft 236 kts 57°
2026-05-06 19:26 -23.61764 -70.48440 4008 ft 234 kts 21°
2026-05-06 19:26 -23.60188 -70.48335 4019 ft 230 kts 339°
2026-05-06 19:26 -23.58791 -70.49160 4008 ft 228 kts 326°
2026-05-06 19:27 -23.57460 -70.50107 3999 ft 228 kts 324°
2026-05-06 19:27 -23.56143 -70.51065 3992 ft 228 kts 324°
2026-05-06 19:27 -23.54836 -70.52042 3993 ft 227 kts 319°
2026-05-06 19:27 -23.54036 -70.53464 4002 ft 224 kts 280°
2026-05-06 19:28 -23.53915 -70.55167 4004 ft 225 kts 266°
2026-05-06 19:28 -23.54527 -70.56693 4021 ft 227 kts 224°
2026-05-06 19:28 -23.55952 -70.57425 4020 ft 231 kts 194°
2026-05-06 19:28 -23.57523 -70.57746 3998 ft 229 kts 190°
2026-05-06 19:29 -23.59108 -70.57999 3998 ft 231 kts 187°
2026-05-06 19:29 -23.60686 -70.57803 4008 ft 233 kts 154°
2026-05-06 19:29 -23.61791 -70.56536 4018 ft 238 kts 112°
2026-05-06 19:29 -23.61946 -70.54802 4020 ft 236 kts 74°
2026-05-06 19:30 -23.61049 -70.53351 4022 ft 235 kts 33°
2026-05-06 19:30 -23.59516 -70.52893 4026 ft 231 kts 351°
2026-05-06 19:30 -23.58002 -70.53410 3999 ft 229 kts 342°
2026-05-06 19:30 -23.56426 -70.53371 3989 ft 233 kts 19°
2026-05-06 19:31 -23.55209 -70.52232 4001 ft 237 kts 61°
2026-05-06 19:31 -23.54950 -70.50492 3995 ft 237 kts 102°
2026-05-06 19:31 -23.57258 -70.48320 3994 ft 232 kts 170°
2026-05-06 19:32 -23.58854 -70.48037 3989 ft 232 kts 174°
2026-05-06 19:32 -23.60450 -70.47813 3988 ft 231 kts 175°
2026-05-06 19:32 -23.62011 -70.47620 3984 ft 231 kts 175°
2026-05-06 19:32 -23.63636 -70.47433 3988 ft 232 kts 176°
2026-05-06 19:33 -23.65209 -70.47636 4003 ft 228 kts 201°
2026-05-06 19:33 -23.66766 -70.47971 3999 ft 232 kts 180°
2026-05-06 19:33 -23.68384 -70.47892 3993 ft 232 kts 179°
2026-05-06 19:33 -23.69920 -70.48241 4011 ft 227 kts 215°
2026-05-06 19:34 -23.70824 -70.49597 4019 ft 226 kts 258°
2026-05-06 19:34 -23.70628 -70.51259 4021 ft 226 kts 300°
2026-05-06 19:34 -23.69530 -70.52445 4011 ft 228 kts 322°
2026-05-06 19:34 -23.68236 -70.53446 3996 ft 227 kts 324°
2026-05-06 19:35 -23.66914 -70.54397 3991 ft 228 kts 327°
2026-05-06 19:35 -23.65471 -70.55119 3985 ft 230 kts 346°
2026-05-06 19:35 -23.63909 -70.54892 4011 ft 234 kts 28°
2026-05-06 19:35 -23.62842 -70.53575 4018 ft 237 kts 64°
2026-05-06 19:36 -23.62219 -70.51913 3997 ft 236 kts 66°
2026-05-06 19:36 -23.61187 -70.50570 4002 ft 234 kts 27°
2026-05-06 19:36 -23.59638 -70.50307 3998 ft 231 kts 345°
2026-05-06 19:36 -23.58203 -70.51053 4004 ft 228 kts 328°
2026-05-06 19:37 -23.56818 -70.51890 3991 ft 228 kts 340°
2026-05-06 19:37 -23.55249 -70.51827 4009 ft 234 kts 23°
2026-05-06 19:37 -23.53940 -70.50759 3993 ft 235 kts 36°
2026-05-06 19:37 -23.52972 -70.50274 3996 ft 231 kts
2026-05-06 19:38 -23.51040 -70.50949 4002 ft 227 kts 311°
2026-05-06 19:38 -23.50466 -70.52498 4009 ft 225 kts 269°
2026-05-06 19:38 -23.51018 -70.54051 4002 ft 227 kts 227°
2026-05-06 19:38 -23.52414 -70.54806 4024 ft 230 kts 189°
2026-05-06 19:39 -23.54018 -70.54951 4003 ft 231 kts 184°
2026-05-06 19:39 -23.55627 -70.55003 3986 ft 231 kts 182°
2026-05-06 19:39 -23.57238 -70.55023 3989 ft 232 kts 181°
2026-05-06 19:39 -23.58841 -70.55032 3993 ft 230 kts 182°
2026-05-06 19:40 -23.60446 -70.55061 3986 ft 232 kts 182°
2026-05-06 19:40 -23.62059 -70.55102 3987 ft 230 kts 182°
2026-05-06 19:40 -23.63660 -70.55148 3994 ft 231 kts 183°
2026-05-06 19:40 -23.65269 -70.55195 3984 ft 231 kts 183°
2026-05-06 19:41 -23.66870 -70.55221 4023 ft 230 kts 178°
2026-05-06 19:41 -23.68275 -70.54470 4249 ft 239 kts 129°
2026-05-06 19:41 -23.68611 -70.52743 4283 ft 251 kts 72°
2026-05-06 19:41 -23.67476 -70.51296 3759 ft 255 kts 33°
2026-05-06 19:42 -23.66674 -70.50756 3637 ft 246 kts 28°
2026-05-06 19:42 -23.66638 -70.50734 3632 ft 246 kts 28°
2026-05-06 19:42 -23.65162 -70.49902 3429 ft 230 kts 27°
2026-05-06 19:43 -23.63927 -70.48910 3345 ft 212 kts 43°
2026-05-06 19:43 -23.62946 -70.47761 3102 ft 202 kts 42°
2026-05-06 19:43 -23.61847 -70.46874 2779 ft 197 kts 26°
2026-05-06 19:43 -23.60617 -70.46407 2525 ft 177 kts
2026-05-06 19:44 -23.59447 -70.46267 2224 ft 165 kts
2026-05-06 19:44 -23.58288 -70.46183 1973 ft 170 kts
2026-05-06 19:44 -23.57092 -70.46061 1707 ft 175 kts
2026-05-06 19:44 -23.55870 -70.45916 1460 ft 178 kts
2026-05-06 19:45 -23.54624 -70.45799 1256 ft 186 kts
2026-05-06 19:45 -23.53300 -70.45666 1201 ft 192 kts
2026-05-06 19:45 -23.52072 -70.45487 1150 ft 166 kts
2026-05-06 19:45 -23.50976 -70.45268 852 ft 156 kts
2026-05-06 19:46 -23.49886 -70.45140 613 ft 162 kts
2026-05-06 19:46 -23.48798 -70.45049 466 ft 151 kts
2026-05-06 19:46 -23.47761 -70.44940 316 ft 159 kts
2026-05-06 19:46 -23.46520 -70.44778 620 ft 189 kts
2026-05-06 19:47 -23.45230 -70.44573 584 ft 192 kts
2026-05-06 19:47 -23.43934 -70.44317 1032 ft 180 kts
2026-05-06 19:47 -23.42765 -70.44075 1625 ft 166 kts
2026-05-06 19:47 -23.41648 -70.43774 2055 ft 163 kts 14°
2026-05-06 19:48 -23.40587 -70.43451 2497 ft 157 kts 12°
2026-05-06 19:48 -23.39544 -70.43187 2972 ft 150 kts 11°
2026-05-06 19:48 -23.38580 -70.42984 3313 ft 133 kts 345°
2026-05-06 19:48 -23.37705 -70.43481 3028 ft 152 kts 320°
2026-05-06 19:49 -23.36954 -70.44287 3098 ft 152 kts 306°
2026-05-06 19:49 -23.36430 -70.45273 3190 ft 150 kts 294°
2026-05-06 19:49 -23.35734 -70.46104 3180 ft 156 kts 334°
2026-05-06 19:49 -23.34721 -70.46569 3214 ft 159 kts 336°
2026-05-06 19:50 -23.33694 -70.47025 3269 ft 163 kts 336°
2026-05-06 19:50 -23.32676 -70.47579 3326 ft 164 kts 329°
2026-05-06 19:50 -23.31570 -70.47715 3401 ft 168 kts 23°
2026-05-06 19:50 -23.30864 -70.46769 3473 ft 167 kts 84°
2026-05-06 19:51 -23.31208 -70.45633 3547 ft 161 kts 144°
2026-05-06 19:51 -23.32215 -70.45318 3636 ft 151 kts 183°
2026-05-06 19:51 -23.33264 -70.45319 3697 ft 153 kts 176°
2026-05-06 19:51 -23.34213 -70.44911 3538 ft 147 kts 131°
2026-05-06 19:52 -23.34696 -70.43805 3096 ft 172 kts 116°
2026-05-06 19:52 -23.35441 -70.43009 3555 ft 138 kts 172°
2026-05-06 19:52 -23.36423 -70.43202 2982 ft 168 kts 209°
2026-05-06 19:52 -23.37528 -70.43907 2795 ft 190 kts 210°
2026-05-06 19:53 -23.38676 -70.44522 3278 ft 178 kts 205°
2026-05-06 19:53 -23.39930 -70.44830 3358 ft 194 kts 186°
2026-05-06 19:53 -23.41327 -70.44932 3436 ft 211 kts 185°
2026-05-06 19:53 -23.42870 -70.45033 3695 ft 234 kts 185°
2026-05-06 19:54 -23.44506 -70.45132 3862 ft 234 kts 185°
2026-05-06 19:54 -23.46131 -70.45226 4017 ft 229 kts 185°
2026-05-06 19:54 -23.47724 -70.45314 4531 ft 233 kts 184°
2026-05-06 19:54 -23.49342 -70.45467 5013 ft 233 kts 188°
2026-05-06 19:55 -23.50957 -70.45708 5499 ft 236 kts 190°
2026-05-06 19:55 -23.52560 -70.45973 5975 ft 236 kts 190°
2026-05-06 19:55 -23.54188 -70.46252 6446 ft 238 kts 191°
2026-05-06 19:55 -23.55837 -70.46542 6942 ft 241 kts 191°
2026-05-06 19:56 -23.57495 -70.46837 7408 ft 242 kts 191°
2026-05-06 19:56 -23.59162 -70.47111 7896 ft 243 kts 186°
2026-05-06 19:56 -23.60845 -70.47378 8313 ft 249 kts 194°
2026-05-06 19:56 -23.62524 -70.47872 8276 ft 250 kts 198°
2026-05-06 19:57 -23.64196 -70.48426 7916 ft 251 kts 199°
2026-05-06 19:57 -23.65853 -70.48995 7503 ft 248 kts 199°
2026-05-06 19:57 -23.67495 -70.49569 7055 ft 247 kts 199°
2026-05-06 19:57 -23.69121 -70.50142 6624 ft 245 kts 199°
2026-05-06 19:58 -23.70781 -70.50492 6162 ft 245 kts 173°
2026-05-06 19:58 -23.72289 -70.49740 5674 ft 247 kts 133°
2026-05-06 19:58 -23.73030 -70.48084 5209 ft 247 kts 93°
2026-05-06 19:58 -23.72655 -70.46297 4729 ft 245 kts 53°
2026-05-06 19:59 -23.71352 -70.45193 4332 ft 236 kts 12°
2026-05-06 19:59 -23.69783 -70.45207 4178 ft 226 kts 343°
2026-05-06 19:59 -23.68296 -70.45737 4271 ft 222 kts 346°
2026-05-06 19:59 -23.66759 -70.45785 5092 ft 220 kts
2026-05-06 20:00 -23.65141 -70.45329 5005 ft 251 kts 13°
2026-05-06 20:00 -23.63431 -70.45005 4581 ft 241 kts
2026-05-06 20:00 -23.61900 -70.45115 4519 ft 205 kts 349°
2026-05-06 20:00 -23.60996 -70.45329 4189 ft 199 kts 343°
2026-05-06 20:01 -23.59692 -70.45770 3455 ft 197 kts 340°
2026-05-06 20:01 -23.58380 -70.46171 2832 ft 196 kts 346°
2026-05-06 20:01 -23.56988 -70.46341 2671 ft 196 kts 358°
2026-05-06 20:01 -23.55680 -70.46196 2412 ft 184 kts
2026-05-06 20:02 -23.54411 -70.45930 1852 ft 190 kts
2026-05-06 20:02 -23.53086 -70.45635 1410 ft 194 kts 10°
2026-05-06 20:02 -23.51775 -70.45398 1080 ft 189 kts
2026-05-06 20:02 -23.50479 -70.45260 843 ft 185 kts
2026-05-06 20:03 -23.49153 -70.45092 737 ft 198 kts
2026-05-06 20:03 -23.47813 -70.44919 642 ft 188 kts
2026-05-06 20:03 -23.46515 -70.44776 404 ft 202 kts
2026-05-06 20:03 -23.45183 -70.44594 377 ft 183 kts
2026-05-06 20:04 -23.44001 -70.44455 423 ft 151 kts
2026-05-06 20:04 -23.43313 -70.44332 462 ft 41 kts 36°
2026-05-06 20:04 -23.43280 -70.44262 464 ft 16 kts 95°
2026-05-06 20:04 -23.43438 -70.44187 458 ft 46 kts 185°
2026-05-06 20:05 -23.43887 -70.44235 436 ft 87 kts 187°
2026-05-06 20:05 -23.44377 -70.44297 412 ft 66 kts 186°
2026-05-06 20:05 -23.44547 -70.44321 407 ft 0 kts 187°
2026-05-06 20:06 -23.44566 -70.44322 406 ft 15 kts 182°
2026-05-06 20:06 -23.44720 -70.44291 399 ft 31 kts 166°
2026-05-06 20:07 -23.44826 -70.44153 395 ft 3 kts 72°
2026-05-06 20:07 -23.44825 -70.44149 395 ft 0 kts 72°
2026-05-06 20:08 -23.44826 -70.44148 395 ft 0 kts 83°
2026-05-06 20:10 -23.44828 -70.44168 395 ft 3 kts 83°
2026-05-06 20:10 -23.44830 -70.44187 392 ft 3 kts 83°
2026-05-06 20:10 -23.44830 -70.44186 392 ft 0 kts 84°
2026-05-06 20:10 -23.44829 -70.44173 394 ft 4 kts 83°
2026-05-06 20:11 -23.44828 -70.44156 395 ft 0 kts 90°